Location: Unspecified
(0.0000°N, 0.0000°E)
Time: 19:29:20
(UTC+00:00)

Hubble Space Telescope - Pass Details

Date: 01 March 2021
Orbit: 536 x 539 km, 28.5° (Epoch: 25 February)

Event Time Altitude Azimuth Distance (km) Brightness Sun altitude
Exits shadow 04:11:23 19° 53° (NE) 1,287 3.1 -30.0°
Drops below altitude 10° 04:13:28 10° 81° (E) 1,781 4.3 -29.4°
Sets 04:16:07 0° 96° (E) 2,673 5.6 -28.8°
